User: anonymous   Login
Location: Unspecified
(0.0000°N, 0.0000°E)
Time: 16:55:52
(UTC+00:00)
Language:

Orbcomm D8 (FM36) - Orbit

View from above orbital plane
View from above orbital plane
View from above satellite
View from above satellite

Ground track
Ground track

The orbit data is extracted from the following two-line orbital elements,

1 25984U 99065E   18053.11089699 -.00000225  00000-0 -30892-4 0  9994
2 25984  45.0398  66.7270 0005246 285.6095  74.4173 14.32580019951508
Epoch (UTC): 22 February 2018 02:39:41
Eccentricity: 0.0005246
inclination: 45.0398°
perigee height: 779 km
apogee height: 787 km
right ascension of ascending node: 66.7270°
argument of perigee: 285.6095°
revolutions per day: 14.32580019
mean anomaly at epoch: 74.4173°
orbit number at epoch: 95150

The dashed part of the orbit path shows where the satellite is in the earth's shadow,  

DLR